Regional Weather Roundup
Issued by NWS Upton, NY

Current Version | Previous Version | Graphics & Text | Print | Product List | Glossary Off
Versions: 1 2 3 4 5 6 7 8 9 10 11 12 13 14 15 16 17 18 19 20 21 22 23 24 25 26 27 28 29 30 31 32 33 34 35 36 37 38 39 40 41 42 43 44 45 46 47 48 49 50

734
ASUS41 KOKX 171108
RWROKX

REGIONAL WEATHER ROUNDUP
NATIONAL WEATHER SERVICE NEW YORK NY
600 AM EST TUE JAN 17 2017

NOTE: "FAIR" INDICATES FEW OR NO CLOUDS BELOW 12,000 FEET WITH NO
SIGNIFICANT WEATHER AND/OR OBSTRUCTIONS TO VISIBILITY.

NYZ071-072-176-178-NJZ106-104-171200-
NEW YORK CITY METRO AREA

CITY           SKY/WX    TMP DP  RH WIND       PRES   REMARKS
Central Park   CLOUDY    40  27  59 VRB6      30.24S
Wall St Helipt CLOUDY    39  27  62 W7        30.24S WCI  34
Bronx Bot Gard NOT AVBL
LaGuardia APRT CLOUDY    42  28  57 CALM      30.22S
Kennedy INTL   CLOUDY    40  27  59 SW8       30.24S WCI  34
Breezy Point     N/A     37 N/A N/A W5          N/A  WCI  34
Newark/Liberty CLOUDY    39  26  59 SW6       30.22F WCI  35
Teterboro      CLOUDY    39  29  67 S3        30.21F
$$

NYZ177-179-078>081-171200-
LONG ISLAND NEW YORK

CITY           SKY/WX    TMP DP  RH WIND       PRES   REMARKS
Jones Beach      N/A     39 N/A N/A W8          N/A  WCI  34
Matinecock PT  NOT AVBL
Farmingdale    CLOUDY    39  28  64 W5        30.23R
MacArthur/ISP  CLOUDY    39  29  67 W3        30.22S
Shirley        CLOUDY    35  30  82 CALM      30.23S
Westhampton    CLOUDY    31  26  82 CALM      30.24F
Southampton    NOT AVBL
Bridgehampton  NOT AVBL
East Hampton     N/A     33  27  77 CALM      30.22S
Montauk          N/A     39  29  67 CALM      30.24R
$$

NYZ052-065-067-171200-
HUDSON VALLEY

CITY           SKY/WX    TMP DP  RH WIND       PRES   REMARKS
White Plains   CLOUDY    36  26  67 CALM      30.19S
Newburgh       MOCLDY    34  28  80 W6        30.21S WCI  29
Montgomery     CLOUDY    35  27  72 CALM      30.19R
Poughkeepsie   CLOUDY    31  27  85 CALM      30.21S
Albany         MOCLDY    20  16  84 CALM      30.23S
$$

NJZ001-105-106-008-010-013-015-019>022-104-171200-
NEW JERSEY

CITY           SKY/WX    TMP DP  RH WIND       PRES   REMARKS
Newark/Liberty CLOUDY    39  26  59 SW6       30.22F WCI  35
Teterboro      CLOUDY    39  29  67 S3        30.21F
Caldwell       CLOUDY    38  27  64 S3        30.22S
Somerville     CLOUDY    35  27  72 CALM      30.21S
Linden         CLOUDY    38  25  59 W5        30.24S WCI  35
Sussex         CLOUDY    34  27  75 CALM      30.20S
Andover          N/A     34  27  75 CALM      30.20S
Trenton        CLOUDY    38  28  67 CALM      30.21F
Millville      LGT RAIN  37  37 100 CALM      30.24F
Atlantic City  LGT RAIN  38  31  76 CALM      30.25R
Wrightstown    CLOUDY    38  27  64 SW6       30.20S WCI  33
Toms River     LGT RAIN  38  27  64 SW7       30.25R WCI  33
Belmar         CLOUDY    38  26  62 CALM      30.24R
$$

PAZ047>061-062-071-171200-
EASTERN PENNSYLVANIA

CITY           SKY/WX    TMP DP  RH WIND       PRES   REMARKS
Philadelphia   CLOUDY    39  30  70 S3        30.25F
Allentown      CLOUDY    37  27  67 CALM      30.20F
Scranton       MIX PCPN  34  30  85 E3        30.17F
$$

CTZ002-004>006-009-010-012-RIZ004-006-007-MAZ004-011-015-171200-
SOUTHERN NEW ENGLAND
 IN CT

CITY           SKY/WX    TMP DP  RH WIND       PRES   REMARKS
Bradley INTL   CLOUDY    28  24  85 NW3       30.22S
Hartford       MOCLDY    30  26  85 CALM      30.22F
Danbury        CLOUDY    31  26  82 CALM      30.22S
Wtrbury/Oxford MOCLDY    34  25  69 N5        30.20S WCI  30
Bridgeport     MOCLDY    38  27  64 CALM      30.22S
Meriden        CLOUDY    33  28  81 CALM      30.22S
New Haven      CLOUDY    35  27  72 CALM      30.22S
Chester        CLOUDY    36  25  64 CALM      30.20F
Groton         CLOUDY    37  28  70 CALM      30.22R
Wilimantic     MOCLDY    29  25  85 NE3       30.22S

 IN RI

CITY           SKY/WX    TMP DP  RH WIND       PRES   REMARKS
Providence     CLOUDY    32  23  69 SW5       30.21S WCI  27
Block Island   NOT AVBL
Westerly       CLOUDY    38  26  62 CALM      30.23R
 IN MA

CITY           SKY/WX    TMP DP  RH WIND       PRES   REMARKS
Boston         PTCLDY    35  19  52 W8        30.21R WCI  29
Worcester      CLOUDY    32  15  49 NW12      30.16R WCI  23
Westfield      MOCLDY    26  22  84 N3        30.21S
Provincetown   CLEAR     37  27  67 NW9       30.21R WCI  30
Nantucket      CLOUDY    40  33  76 W7        30.21R
$$

ANZ330-335-338-340-345-350-353-355-171200-
COASTAL MARINE OBSERVATIONS


STATION/POSITION TIME  SKY/WX   TEMP    WIND        PRES    VSBY  WAVE
                                AIR SEA DIR/SP/G                  HT/PER
                 (UTC)          (F)     (DEG/KT/KT) (MB)    (MI)  (FT/S)
NY HARB ENTRANCE 1050            41 43  260/ 10/ 10 1023.8          1/10
20 S FIRE ISLAND 1050            42 45  270/ 12/ 14 1023.4          2/ 3
GREAT SOUTH BAY  NOT AVBL
23 SSW MONTAUK P 1050            42 48  270/ 14/ 16 1023.9          3/ 5
15 E BARNEGAT LI 1030               45                N/A           1/ 8
HUDSON CANYON    0950            47 53              1023.9          2/10
KINGS POINT      1048            40 38              1023.2
EXECUTION ROCKS  1045            40     240/  6/  6   N/A
CENTRAL LI SOUND 1030            40     260/ 10/ 12   N/A           1
EASTERN LI SOUND NOT AVBL
ROBBINS REEF     1048            39     260/  5/  6 1023.8
$$


>>>>>>>>>>>>>>>>>>>>>>>>>>>> KEY <<<<<<<<<<<<<<<<<<<<<<<<<<<
>                                                          <
>     SKY/WX - Sky Condition/Present Weather               <
>     TMP    - Temperature in Fahrenheit                   <
>     DP     - Dew Point in Fahrenheit                     <
>     RH     - Relative Humidity in Percent                <
>     WIND   - Direction (from) and Speed in MPH           <
>     PRES   - Mean Sea Level Pressure (inches of Hg)      <
>     WCI    - Wind Chill Index                            <
>     VSB    - VISIBILITY IN MILES                         <
>     HX     - HEAT INDEX                                  <
>     TC     - TEMPERATURE IN CELSIUS                      <
>     VRB    - VARIABLE WIND DIRECTION                     <
>                                                          <
>>>>>>>>>>>>>>>>>>>>>>>>>>>> KEY <<<<<<<<<<<<<<<<<<<<<<<<<<<




USA.gov is the U.S. government's official web portal to all federal, state and local government web resources and services.